Espace membre
Imprimable
Auderghem, 29/10/2017, BEL - Trail Brussel
Liste des rapports > 21km - Classement
Recherche: Page: [1]
87 Entrées
 
Les réclamations ne sont plus acceptées, les résultats sont considérés comme définitifs.
RangNrNomAgeIOCEquipeRéelTempsTkmMoy.ScrLocalité
Vos photos grâce à Sportograf1.2372FCHAMPION Juliet38GBR1:39:101:39:104:44 12.7126LA HULPE
Vos photos grâce à Sportograf2.720FKLEMENCIC SCHMIDT Nastja39SVN1:45:511:46:095:04 11.8753
Vos photos grâce à Sportograf3.2287FCRAVATTE Christel31BEL1:46:561:47:245:07 11.7362COUTHUIN
Vos photos grâce à Sportograf4.629FDECROUBELE Lies36BEL1:47:121:47:475:08 11.6967
Vos photos grâce à Sportograf5.821FRICHARD Laura32BEL1:48:131:48:225:10 11.6370
Vos photos grâce à Sportograf6.896FVAN IMSCHOOT Marijke37BEL1:49:011:49:185:13 11.5378
Vos photos grâce à Sportograf7.603FDE HULTS Gatienne27BEL1:48:511:50:015:15 11.4585
Vos photos grâce à Sportograf8.590FDAUPHIN Marion32BEL1:50:471:50:575:17 11.3696
Vos photos grâce à Sportograf9.651FDUBOIS Pauline26BEL1:50:531:52:025:21 11.25108
Vos photos grâce à Sportograf10.766FMEDAETS Alizee23BEL1:52:091:52:145:21 11.23111
Vos photos grâce à Sportograf11.601FDE FRAINE Ingrid38BEL1:56:111:56:395:34 10.80142
Vos photos grâce à Sportograf12.767FMEDINA Dagnija26LVA1:56:511:57:035:35 10.77146
Vos photos grâce à Sportograf13.728FLARUE Claire27BEL1:58:531:59:095:41 10.58163
Vos photos grâce à Sportograf14.532FBERAUD Salomé27FRA1:59:351:59:465:43 10.52173
Vos photos grâce à Sportograf15.2331FOLIVER Alessandra20BEL1:59:372:00:045:44 10.49179
Vos photos grâce à Sportograf16.522FBASTIJNS Nele38BEL1:59:522:00:405:45 10.44186
Vos photos grâce à Sportograf17.622FDE WEVER Silke24BEL2:00:552:01:035:46 10.41187
Vos photos grâce à Sportograf18.2317FLISELOT Caura29BEL2:01:592:02:215:50 10.30207
Vos photos grâce à Sportograf19.941FVERVOORT Lore30BEL2:02:082:02:415:51 10.27212
Vos photos grâce à Sportograf20.966FWYNANTS Ezra26BEL2:03:462:04:265:56 10.13228
Vos photos grâce à Sportograf21.882FVAN DER SNEPPEN Lineke36NLD2:03:592:04:295:56 10.12229
Vos photos grâce à Sportograf22.666FFRANS Evi31BEL2:04:042:04:415:57 10.11233
Vos photos grâce à Sportograf23.543FBOCQUET Charlotte24BEL2:04:232:04:565:57 10.09235
Vos photos grâce à Sportograf24.2153FJOUAN Nadja37BEL2:04:112:05:165:58 10.06239
Vos photos grâce à Sportograf25.809FPITT Fiona27GBR2:04:382:05:365:59 10.03241
Vos photos grâce à Sportograf26.2264FFOLON Jennyfer29BEL2:05:522:06:116:01 9.99245LIMAL
Vos photos grâce à Sportograf27.2323FBOQUÉ Julie22BEL2:07:272:07:306:05 9.88258GEMBLOUX
Vos photos grâce à Sportograf28.742FLHEUREUX Chloé28FRA2:07:312:07:426:05 9.87260
Vos photos grâce à Sportograf29.650FDREPPER Bettina35NLD2:07:492:08:306:08 9.81271
Vos photos grâce à Sportograf30.517FBAISE Charlotte32BEL2:08:112:08:306:08 9.81272
Vos photos grâce à Sportograf31.539FBIRON Hélia21BEL2:08:042:09:086:09 9.76275
Vos photos grâce à Sportograf32.2290FVERMISSEN Leen36BEL2:09:412:09:456:11 9.71282
Vos photos grâce à Sportograf33.842FSMEDTS Mieke37BEL2:10:432:11:046:15 9.61303
Vos photos grâce à Sportograf34.2181FMILLER-LITTLE Catherine33USA2:11:522:12:206:19 9.52312
Vos photos grâce à Sportograf35.658FFASTENAEKELS Inge38BEL2:12:162:12:336:19 9.51316
Vos photos grâce à Sportograf36.2262FNIJHUIS Jitske28NLD2:12:222:12:386:19 9.50318
Vos photos grâce à Sportograf37.898FVAN LAERE Elke28BEL2:12:112:12:556:20 9.48319
Vos photos grâce à Sportograf38.947FVON TSCHURTSCHENTHALER Katharina35ITA2:12:502:13:016:21 9.47321
Vos photos grâce à Sportograf39.2315FBEZETTA Vanessa31BEL2:12:292:13:166:21 9.46324
Vos photos grâce à Sportograf40.945FVOET Els30BEL2:12:582:13:526:23 9.41328
Vos photos grâce à Sportograf41.709FHOUDOU Sophie39BEL2:13:452:14:506:26 9.35333
Vos photos grâce à Sportograf42.705FHERMANS Sofie37BEL2:14:102:15:076:27 9.33337
Vos photos grâce à Sportograf43.679FGHERGHE Ramona38ROM2:15:042:15:336:28 9.30339
Vos photos grâce à Sportograf44.764FMATTENS Saartje36BEL2:15:252:15:566:29 9.27340
Vos photos grâce à Sportograf45.769FMELNIK Inga31RUS2:14:392:16:016:29 9.26342
Vos photos grâce à Sportograf46.579FCORNEJO Nadia28BEL2:15:052:16:026:29 9.26343
Vos photos grâce à Sportograf47.848FSTOFFELEN Elma27NLD2:15:592:16:166:30 9.25346
Vos photos grâce à Sportograf48.963FWILLEMS Evy36BEL2:17:392:18:146:35 9.12359
Vos photos grâce à Sportograf49.615FDE RIJCKE Stephanie38BEL2:17:382:18:146:35 9.12360
Vos photos grâce à Sportograf50.662FFIRSOVA Yulia30BEL2:18:222:18:476:37 9.08365
Vos photos grâce à Sportograf51.645FDEWANDRE Charlotte28BEL2:18:242:18:496:37 9.08367
Vos photos grâce à Sportograf52.570FCHARLIER Héloîse34BEL2:19:352:20:326:42 8.97377
Vos photos grâce à Sportograf53.965FWITTEVEEN Daphne31BEL2:19:392:20:486:43 8.95384
Vos photos grâce à Sportograf54.653FEEMBEEK Kirsten27BEL2:21:082:21:276:45 8.91391
Vos photos grâce à Sportograf55.597FDE CANNART Marie-Kell21BEL2:22:002:23:036:49 8.81399
Vos photos grâce à Sportograf56.694FGRÉGOIRE Caroline23BEL2:22:482:23:116:50 8.80400
Vos photos grâce à Sportograf57.953FWATTIEZ Caroline30BEL2:22:552:23:466:51 8.77403
Vos photos grâce à Sportograf58.618FDE SCHUYTER Katrien36BEL2:23:252:24:006:52 8.75406
Vos photos grâce à Sportograf59.642FDESTRÉE Debbie27BEL2:23:292:24:086:52 8.74407
Vos photos grâce à Sportograf60.722FKUKKOHOVI Milja24FIN2:23:412:24:526:54 8.70411
Vos photos grâce à Sportograf61.664FFRAIPONT Barbara29BEL2:24:122:25:106:55 8.68413
Vos photos grâce à Sportograf62.1102FDE VESTEL Valérie39BEL2:25:012:25:116:55 8.68414
Vos photos grâce à Sportograf63.608FDE LANGE Amélie25BEL2:26:262:26:597:00 8.57418
Vos photos grâce à Sportograf64.654FENGLEBIN Julie39BEL2:27:422:28:017:03 8.51421
Vos photos grâce à Sportograf65.2132FGHAFOOR-ZADEH Dana26DEU2:29:132:30:077:09 8.39430
Vos photos grâce à Sportograf66.843FSMEETS Valerie36BEL2:29:472:30:147:10 8.39431
Vos photos grâce à Sportograf67.860FTIELEMANS Kristy26BEL2:30:492:31:327:13 8.32435
Vos photos grâce à Sportograf68.923FVERBIEST Inès26BEL2:30:482:31:337:13 8.31436
Vos photos grâce à Sportograf69.639FDEROM Sophie23BEL2:30:282:31:437:14 8.31438
Vos photos grâce à Sportograf70.820FRESSENT Nathalie29FRA2:30:502:32:027:15 8.29440
Vos photos grâce à Sportograf71.547FBORGOO Lara29FRA2:31:212:32:097:15 8.28441
Vos photos grâce à Sportograf72.542FBLONDET Clarisse25FRA2:31:172:32:217:16 8.27443
Vos photos grâce à Sportograf73.936FVERSCHAEVE Sofie39BEL2:32:572:33:037:18 8.23446
Vos photos grâce à Sportograf74.610FDE MAERE Kirsten34BEL2:32:172:33:167:18 8.22447
Vos photos grâce à Sportograf75.957FWEEMAELS Edith32BEL2:34:242:35:337:25 8.10451
Vos photos grâce à Sportograf76.171FGOEMAN Donatienne28BEL2:35:032:35:587:26 8.08454
Vos photos grâce à Sportograf77.734FLELEUX Laura29BEL2:35:342:36:107:27 8.07455
Vos photos grâce à Sportograf78.862FTRICOURT Estelle24BEL2:37:112:37:567:32 7.98461
Vos photos grâce à Sportograf79.721FKOVACS Elisabeth26BEL2:37:112:38:267:33 7.95462
Vos photos grâce à Sportograf80.606FDE KEYZER Laura30BEL2:39:532:40:217:39 7.86468
Vos photos grâce à Sportograf81.944FVILLERS Florence24BEL2:39:302:40:457:40 7.84471
Vos photos grâce à Sportograf82.589FDARCHICOURT Alice26FRA2:45:322:46:367:56 7.56478
Vos photos grâce à Sportograf83.846FSOTTIAUX Sophie24BEL2:48:082:49:238:04 7.44479
Vos photos grâce à Sportograf84.692FGOUET Camille24BEL2:53:142:53:488:17 7.25481
Vos photos grâce à Sportograf85.828FSALIN Pauline25FRA2:56:332:57:278:27 7.10484
Vos photos grâce à Sportograf86.521FBARTKOWSKI Lisa25GER3:03:143:03:518:46 6.85485
Vos photos grâce à SportografDNF636FDENEUMOSTIER Eve32BEL
DNF: abandon; DSQ: disqualifié; Vitesse en km/h
Page: [1]